tititudorancea.com
Ararat Weather - Ararat,Victoria,Australia
 
Daily Summary for April 21, 2014 Units:  Metric    English   Both
« Previous Day
Next Day »
Daily Weekly Monthly Yearly Custom
  Current: High: Low: Average:
Temperature: 15 °C 15 °C 9.3 °C 10.9 °C
Dew Point: 8 °C 8 °C 6.2 °C 6.9 °C
Humidity: 63% 85% 63% 77%
Wind Speed: 8.7km/h 14.8km/h 0km/h 3.9km/h
Wind Gust: 25.6km/h 31.7km/h - -
WindNNE - - SSE
Pressure: 1016.5 hPa 1017.5 hPa 1015.5 hPa -
Precipitation: 0 mm      
Historical Graphs
 
 
Ararat weather Find more about Weather in Ararat, AU


 




 


Tabular Data for April 21, 2014
Time Temperature Dew Point Pressure Wind Wind Speed Wind Gust Humidity Rainfall Rate (Hourly)
00:01 12.1 °C 6.9 °C 1016.5 hPa Calm   2.6 km/h 71% 0 mm
00:02 11.9 °C 6.9 °C 1016.5 hPa NW 1.1 km/h 2.6 km/h 71% 0 mm
00:03 11.9 °C 6.9 °C 1016.5 hPa NW 1.1 km/h 2.6 km/h 71% 0 mm
00:04 11.9 °C 6.9 °C 1016.5 hPa NW 1.1 km/h 2.6 km/h 71% 0 mm
00:06 11.8 °C 6.8 °C 1016.5 hPa NW 1.1 km/h 2.6 km/h 71% 0 mm
00:07 11.8 °C 7 °C 1016.5 hPa NW 1.1 km/h 2.6 km/h 72% 0 mm
00:09 11.8 °C 6.9 °C 1016.5 hPa NW 1.1 km/h 2.6 km/h 72% 0 mm
00:10 11.8 °C 6.9 °C 1016.5 hPa NW 1.1 km/h 3.5 km/h 72% 0 mm
00:12 11.7 °C 6.8 °C 1016.5 hPa NW 2.6 km/h 3.5 km/h 72% 0 mm
00:14 11.6 °C 6.7 °C 1016.5 hPa NW 2.6 km/h 3.5 km/h 72% 0 mm
00:16 11.4 °C 6.6 °C 1016.1 hPa NW 1.1 km/h 3.5 km/h 72% 0 mm
00:17 11.4 °C 6.6 °C 1016.5 hPa Calm   3.5 km/h 72% 0 mm
00:19 11.4 °C 6.5 °C 1016.5 hPa Calm   3.5 km/h 72% 0 mm
00:20 11.4 °C 6.5 °C 1016.5 hPa Calm   3.5 km/h 72% 0 mm
00:23 11.3 °C 6.6 °C 1016.5 hPa NW 1.1 km/h 3.5 km/h 73% 0 mm
00:24 11.3 °C 6.6 °C 1016.5 hPa NW 1.1 km/h 3.5 km/h 73% 0 mm
00:25 11.3 °C 6.6 °C 1016.5 hPa NW 1.1 km/h 3.5 km/h 73% 0 mm
00:28 11.2 °C 6.5 °C 1016.1 hPa NW 1.1 km/h 3.5 km/h 73% 0 mm
00:29 11.2 °C 6.5 °C 1016.1 hPa NW 1.1 km/h 3.5 km/h 73% 0 mm
00:30 11.1 °C 6.4 °C 1016.1 hPa NW 1.1 km/h 3.5 km/h 73% 0 mm
00:31 11.1 °C 6.4 °C 1016.1 hPa NNW 1.1 km/h 3.5 km/h 73% 0 mm
00:33 11.1 °C 6.4 °C 1016.5 hPa Calm   3.5 km/h 73% 0 mm
00:34 11 °C 6.3 °C 1016.1 hPa NNW 1.1 km/h 3.5 km/h 73% 0 mm
00:35 11 °C 6.5 °C 1016.5 hPa NNW 1.1 km/h 3.5 km/h 74% 0 mm
00:37 11 °C 6.5 °C 1016.1 hPa NNW 2.6 km/h 3.5 km/h 74% 0 mm
00:38 10.9 °C 6.4 °C 1016.1 hPa NW 1.1 km/h 3.5 km/h 74% 0 mm
00:39 10.9 °C 6.4 °C 1016.1 hPa NW 2.6 km/h 3.5 km/h 74% 0 mm
00:40 10.9 °C 6.4 °C 1016.1 hPa NW 2.6 km/h 3.5 km/h 74% 0 mm
00:42 10.8 °C 6.3 °C 1016.5 hPa NW 1.1 km/h 3.5 km/h 74% 0 mm
00:44 10.8 °C 6.3 °C 1016.1 hPa NW 1.1 km/h 3.5 km/h 74% 0 mm
00:45 10.7 °C 6.2 °C 1016.1 hPa NW 2.6 km/h 3.5 km/h 74% 0 mm
00:46 10.7 °C 6.2 °C 1016.1 hPa NW 2.6 km/h 3.5 km/h 74% 0 mm
00:47 10.7 °C 6.4 °C 1016.1 hPa NW 1.1 km/h 5 km/h 75% 0 mm
00:48 10.7 °C 6.4 °C 1016.1 hPa NW 1.1 km/h 5 km/h 75% 0 mm
00:49 10.7 °C 6.4 °C 1016.1 hPa NW 1.1 km/h 5 km/h 75% 0 mm
00:50 10.6 °C 6.3 °C 1016.1 hPa Calm   5 km/h 75% 0 mm
00:51 10.6 °C 6.3 °C 1016.5 hPa Calm   5 km/h 75% 0 mm
00:52 10.6 °C 6.3 °C 1016.5 hPa NW 1.1 km/h 5 km/h 75% 0 mm
00:53 10.6 °C 6.3 °C 1016.5 hPa NNW 1.1 km/h 5 km/h 75% 0 mm
00:55 10.5 °C 6.2 °C 1016.1 hPa NNW 1.1 km/h 5 km/h 75% 0 mm
00:56 10.5 °C 6.2 °C 1016.5 hPa NNW 1.1 km/h 5 km/h 75% 0 mm
00:57 10.6 °C 6.3 °C 1016.5 hPa NNW 1.1 km/h 5 km/h 75% 0 mm
00:58 10.5 °C 6.2 °C 1016.5 hPa NNW 1.1 km/h 3.5 km/h 75% 0 mm
00:59 10.5 °C 6.4 °C 1016.1 hPa NNW 1.1 km/h 3.5 km/h 76% 0 mm
01:00 10.5 °C 6.4 °C 1016.5 hPa Calm   3.5 km/h 76% 0 mm
01:01 10.5 °C 6.4 °C 1016.5 hPa North 1.1 km/h 3.5 km/h 76% 0 mm
01:02 10.5 °C 6.4 °C 1016.5 hPa Calm   3.5 km/h 76% 0 mm
01:04 10.5 °C 6.4 °C 1016.5 hPa North 2.6 km/h 5 km/h 76% 0 mm
01:05 10.5 °C 6.4 °C 1016.5 hPa North 2.6 km/h 5 km/h 76% 0 mm
01:06 10.5 °C 6.4 °C 1016.1 hPa North 2.6 km/h 6.1 km/h 76% 0 mm
01:07 10.5 °C 6.4 °C 1016.5 hPa North 1.1 km/h 6.1 km/h 76% 0 mm
01:10 10.4 °C 6.3 °C 1016.5 hPa North 1.1 km/h 6.1 km/h 76% 0 mm
01:11 10.4 °C 6.3 °C 1016.5 hPa North 1.1 km/h 6.1 km/h 76% 0 mm
01:12 10.4 °C 6.3 °C 1016.5 hPa North 1.1 km/h 6.1 km/h 76% 0 mm
01:13 10.4 °C 6.3 °C 1016.5 hPa North 2.6 km/h 6.1 km/h 76% 0 mm
01:15 10.4 °C 6.3 °C 1016.5 hPa North 2.6 km/h 7.2 km/h 76% 0 mm
01:16 10.3 °C 6.2 °C 1016.5 hPa North 3.5 km/h 7.2 km/h 76% 0 mm
01:17 10.3 °C 6.4 °C 1016.1 hPa North 3.5 km/h 8.7 km/h 77% 0 mm
01:19 10.3 °C 6.4 °C 1016.5 hPa NNE 2.6 km/h 8.7 km/h 77% 0 mm
01:21 10.3 °C 6.4 °C 1016.5 hPa NNE 2.6 km/h 8.7 km/h 77% 0 mm
01:23 10.4 °C 6.6 °C 1016.5 hPa Calm   8.7 km/h 77% 0 mm
01:25 10.4 °C 6.6 °C 1016.5 hPa NNE 2.6 km/h 8.7 km/h 77% 0 mm
01:26 10.4 °C 6.6 °C 1016.5 hPa NNE 1.1 km/h 8.7 km/h 77% 0 mm
01:28 10.4 °C 6.6 °C 1016.5 hPa NNE 1.1 km/h 6.1 km/h 77% 0 mm
01:29 10.3 °C 6.4 °C 1016.5 hPa NNE 1.1 km/h 5 km/h 77% 0 mm
01:31 10.3 °C 6.4 °C 1016.5 hPa North 1.1 km/h 5 km/h 77% 0 mm
01:32 10.3 °C 6.4 °C 1016.8 hPa North 1.1 km/h 5 km/h 77% 0 mm
01:34 10.3 °C 6.4 °C 1016.5 hPa Calm   3.5 km/h 77% 0 mm
01:35 10.3 °C 6.4 °C 1016.5 hPa Calm   3.5 km/h 77% 0 mm
01:36 10.2 °C 6.3 °C 1016.5 hPa North 1.1 km/h 3.5 km/h 77% 0 mm
01:37 10.2 °C 6.3 °C 1016.5 hPa Calm   3.5 km/h 77% 0 mm
01:39 10.2 °C 6.3 °C 1016.5 hPa North 1.1 km/h 5 km/h 77% 0 mm
01:41 10.2 °C 6.6 °C 1016.5 hPa Calm   5 km/h 78% 0 mm
01:42 10.2 °C 6.6 °C 1016.5 hPa North 1.1 km/h 6.1 km/h 78% 0 mm
01:43 10.2 °C 6.6 °C 1016.5 hPa North 1.1 km/h 6.1 km/h 78% 0 mm
01:44 10.2 °C 6.6 °C 1016.1 hPa North 2.6 km/h 6.1 km/h 78% 0 mm
01:46 10.2 °C 6.6 °C 1016.5 hPa NNE 2.6 km/h 6.1 km/h 78% 0 mm
01:47 10.2 °C 6.6 °C 1016.5 hPa NNE 2.6 km/h 6.1 km/h 78% 0 mm
01:48 10.2 °C 6.6 °C 1016.5 hPa NNE 2.6 km/h 6.1 km/h 78% 0 mm
01:49 10.2 °C 6.6 °C 1016.5 hPa NNE 2.6 km/h 6.1 km/h 78% 0 mm
01:51 10.3 °C 6.6 °C 1016.5 hPa NNE 1.1 km/h 6.1 km/h 78% 0 mm
01:53 10.3 °C 6.6 °C 1016.5 hPa Calm   6.1 km/h 78% 0 mm
01:54 10.3 °C 6.6 °C 1016.5 hPa Calm   6.1 km/h 78% 0 mm
01:55 10.3 °C 6.8 °C 1016.5 hPa NNE 1.1 km/h 6.1 km/h 79% 0 mm
01:56 10.4 °C 6.7 °C 1016.8 hPa NNE 1.1 km/h 6.1 km/h 78% 0 mm
01:57 10.4 °C 6.7 °C 1016.5 hPa NNE 1.1 km/h 6.1 km/h 78% 0 mm
01:58 10.4 °C 6.9 °C 1016.5 hPa NNE 1.1 km/h 6.1 km/h 79% 0 mm
01:59 10.4 °C 6.9 °C 1016.5 hPa NNE 1.1 km/h 6.1 km/h 79% 0 mm
02:00 10.4 °C 6.9 °C 1016.8 hPa NNE 1.1 km/h 6.1 km/h 79% 0 mm
02:01 10.4 °C 6.9 °C 1016.8 hPa NNE 1.1 km/h 6.1 km/h 79% 0 mm
02:02 10.5 °C 7 °C 1016.5 hPa NNE 2.6 km/h 6.1 km/h 79% 0 mm
02:03 10.5 °C 7 °C 1016.8 hPa NNE 2.6 km/h 6.1 km/h 79% 0 mm
02:05 10.5 °C 7 °C 1016.8 hPa NE 1.1 km/h 6.1 km/h 79% 0 mm
02:07 10.6 °C 7.1 °C 1016.8 hPa NE 3.5 km/h 7.2 km/h 79% 0 mm
02:08 10.6 °C 7.1 °C 1016.5 hPa NE 2.6 km/h 7.2 km/h 79% 0 mm
02:10 10.6 °C 7.1 °C 1016.5 hPa NE 2.6 km/h 7.2 km/h 79% 0 mm
02:13 10.7 °C 7.4 °C 1016.5 hPa NE 6.1 km/h 9.7 km/h 80% 0 mm
02:14 10.7 °C 7.4 °C 1016.5 hPa NE 6.1 km/h 9.7 km/h 80% 0 mm
02:16 10.8 °C 7.4 °C 1016.5 hPa NE 3.5 km/h 11.1 km/h 80% 0 mm
02:18 10.8 °C 7.3 °C 1016.5 hPa ENE 2.6 km/h 11.1 km/h 79% 0 mm
02:19 10.8 °C 7.3 °C 1016.5 hPa ENE 2.6 km/h 11.1 km/h 79% 0 mm
02:20 10.8 °C 7.3 °C 1016.1 hPa ENE 3.5 km/h 11.1 km/h 79% 0 mm
02:21 10.8 °C 7.3 °C 1016.5 hPa ENE 2.6 km/h 11.1 km/h 79% 0 mm
02:24 10.9 °C 7.4 °C 1016.5 hPa ENE 1.1 km/h 11.1 km/h 79% 0 mm
02:26 10.9 °C 7.4 °C 1016.5 hPa ENE 2.6 km/h 9.7 km/h 79% 0 mm
02:29 10.9 °C 7.4 °C 1016.5 hPa NE 2.6 km/h 8.7 km/h 79% 0 mm
02:30 10.9 °C 7.4 °C 1016.5 hPa NE 3.5 km/h 8.7 km/h 79% 0 mm
02:31 11 °C 7.5 °C 1016.5 hPa NE 1.1 km/h 7.2 km/h 79% 0 mm
02:32 11 °C 7.5 °C 1016.5 hPa NNE 1.1 km/h 7.2 km/h 79% 0 mm
02:34 11 °C 7.5 °C 1016.1 hPa NNE 1.1 km/h 6.1 km/h 79% 0 mm
02:35 11 °C 7.5 °C 1016.1 hPa North 1.1 km/h 6.1 km/h 79% 0 mm
02:36 11 °C 7.5 °C 1016.5 hPa North 1.1 km/h 6.1 km/h 79% 0 mm
02:37 11 °C 7.5 °C 1016.5 hPa North 1.1 km/h 6.1 km/h 79% 0 mm
02:39 11 °C 7.5 °C 1016.1 hPa Calm   5 km/h 79% 0 mm
02:40 11 °C 7.5 °C 1016.1 hPa Calm   5 km/h 79% 0 mm
02:41 11 °C 7.5 °C 1016.5 hPa North 2.6 km/h 5 km/h 79% 0 mm
02:42 11 °C 7.5 °C 1016.5 hPa North 2.6 km/h 5 km/h 79% 0 mm
02:44 10.9 °C 7.4 °C 1016.1 hPa North 3.5 km/h 6.1 km/h 79% 0 mm
02:45 10.9 °C 7.4 °C 1016.1 hPa North 1.1 km/h 6.1 km/h 79% 0 mm
02:46 10.9 °C 7.4 °C 1016.5 hPa Calm   6.1 km/h 79% 0 mm
02:47 10.9 °C 7.4 °C 1016.5 hPa Calm   6.1 km/h 79% 0 mm
02:48 10.9 °C 7.4 °C 1016.1 hPa NNW 1.1 km/h 6.1 km/h 79% 0 mm
02:50 10.9 °C 7.4 °C 1016.1 hPa North 1.1 km/h 6.1 km/h 79% 0 mm
02:52 10.9 °C 7.4 °C 1016.1 hPa Calm   6.1 km/h 79% 0 mm
02:53 10.9 °C 7.4 °C 1016.5 hPa NNW 1.1 km/h 6.1 km/h 79% 0 mm
02:55 10.9 °C 7.4 °C 1016.1 hPa NW 1.1 km/h 3.5 km/h 79% 0 mm
02:57 10.8 °C 7.3 °C 1016.1 hPa Calm   3.5 km/h 79% 0 mm
02:58 10.8 °C 7.3 °C 1016.1 hPa Calm   3.5 km/h 79% 0 mm
02:59 10.8 °C 7.3 °C 1016.1 hPa Calm   3.5 km/h 79% 0 mm
03:00 10.8 °C 7.3 °C 1016.1 hPa Calm   2.6 km/h 79% 0 mm
03:03 10.7 °C 7.2 °C 1016.5 hPa NW 1.1 km/h 2.6 km/h 79% 0 mm
03:04 10.7 °C 7.2 °C 1016.5 hPa Calm   2.6 km/h 79% 0 mm
03:05 10.7 °C 7.2 °C 1016.5 hPa Calm   2.6 km/h 79% 0 mm
03:08 10.7 °C 7.2 °C 1016.1 hPa Calm   2.6 km/h 79% 0 mm
03:09 10.7 °C 7.2 °C 1016.1 hPa Calm   2.6 km/h 79% 0 mm
03:10 10.6 °C 7.1 °C 1016.1 hPa Calm   2.6 km/h 79% 0 mm
03:13 10.5 °C 7 °C 1016.1 hPa Calm   2.6 km/h 79% 0 mm
03:14 10.5 °C 7 °C 1015.8 hPa Calm   2.6 km/h 79% 0 mm
03:15 10.5 °C 7 °C 1015.8 hPa Calm   2.6 km/h 79% 0 mm
03:19 10.4 °C 6.9 °C 1015.8 hPa Calm     79% 0 mm
03:20 10.4 °C 6.9 °C 1016.1 hPa Calm     79% 0 mm
03:24 10.4 °C 7.1 °C 1015.8 hPa Calm     80% 0 mm
03:25 10.3 °C 6.8 °C 1015.8 hPa Calm     79% 0 mm
03:26 10.3 °C 6.8 °C 1015.8 hPa Calm     79% 0 mm
03:27 10.3 °C 6.8 °C 1015.8 hPa Calm     79% 0 mm
03:29 10.2 °C 6.7 °C 1015.8 hPa Calm   1.1 km/h 79% 0 mm
03:30 10.2 °C 6.7 °C 1015.8 hPa Calm   1.1 km/h 79% 0 mm
03:31 10.2 °C 6.9 °C 1015.8 hPa NNW 2.6 km/h 5 km/h 80% 0 mm
03:33 10.1 °C 6.6 °C 1015.8 hPa Calm   5 km/h 79% 0 mm
03:34 10.1 °C 6.8 °C 1016.1 hPa WNW 1.1 km/h 5 km/h 80% 0 mm
03:35 10.1 °C 6.8 °C 1015.8 hPa WNW 2.6 km/h 5 km/h 80% 0 mm
03:36 10 °C 6.7 °C 1016.1 hPa WNW 2.6 km/h 5 km/h 80% 0 mm
03:37 10 °C 6.7 °C 1015.8 hPa Calm   5 km/h 80% 0 mm
03:38 10 °C 6.7 °C 1015.8 hPa Calm   5 km/h 80% 0 mm
03:40 9.9 °C 6.6 °C 1015.8 hPa WNW 1.1 km/h 5 km/h 80% 0 mm
03:42 9.9 °C 6.6 °C 1015.8 hPa WNW 1.1 km/h 3.5 km/h 80% 0 mm
03:43 9.8 °C 6.5 °C 1015.8 hPa WNW 1.1 km/h 3.5 km/h 80% 0 mm
03:46 9.7 °C 6.4 °C 1015.5 hPa Calm   3.5 km/h 80% 0 mm
03:47 9.7 °C 6.4 °C 1015.5 hPa Calm   3.5 km/h 80% 0 mm
03:48 9.6 °C 6.3 °C 1015.5 hPa Calm   3.5 km/h 80% 0 mm
03:49 9.6 °C 6.3 °C 1015.5 hPa Calm   3.5 km/h 80% 0 mm
03:50 9.6 °C 6.3 °C 1015.5 hPa Calm   3.5 km/h 80% 0 mm
03:51 9.6 °C 6.3 °C 1015.5 hPa Calm   2.6 km/h 80% 0 mm
03:52 9.5 °C 6.2 °C 1015.8 hPa Calm   2.6 km/h 80% 0 mm
03:53 9.5 °C 6.2 °C 1015.5 hPa Calm   2.6 km/h 80% 0 mm
03:54 9.5 °C 6.2 °C 1015.8 hPa Calm   2.6 km/h 80% 0 mm
03:55 9.5 °C 6.2 °C 1015.8 hPa Calm   2.6 km/h 80% 0 mm
03:56 9.5 °C 6.4 °C 1015.8 hPa Calm   2.6 km/h 81% 0 mm
03:58 9.5 °C 6.4 °C 1015.8 hPa NNE 1.1 km/h 2.6 km/h 81% 0 mm
03:59 9.5 °C 6.4 °C 1015.8 hPa Calm   2.6 km/h 81% 0 mm
04:00 9.5 °C 6.4 °C 1015.8 hPa Calm   2.6 km/h 81% 0 mm
04:01 9.4 °C 6.3 °C 1015.8 hPa Calm   2.6 km/h 81% 0 mm
04:03 9.4 °C 6.3 °C 1015.8 hPa Calm   2.6 km/h 81% 0 mm
04:05 9.4 °C 6.3 °C 1015.8 hPa Calm   2.6 km/h 81% 0 mm
04:06 9.4 °C 6.3 °C 1015.8 hPa Calm   2.6 km/h 81% 0 mm
04:07 9.4 °C 6.3 °C 1015.8 hPa Calm   2.6 km/h 81% 0 mm
04:08 9.4 °C 6.3 °C 1015.8 hPa Calm   2.6 km/h 81% 0 mm
04:09 9.4 °C 6.3 °C 1015.8 hPa Calm   2.6 km/h 81% 0 mm
04:10 9.3 °C 6.2 °C 1015.8 hPa Calm   1.1 km/h 81% 0 mm
04:13 9.4 °C 6.3 °C 1015.8 hPa Calm     81% 0 mm
04:14 9.4 °C 6.3 °C 1015.8 hPa Calm     81% 0 mm
04:16 9.4 °C 6.5 °C 1016.1 hPa Calm     82% 0 mm
04:18 9.4 °C 6.5 °C 1015.8 hPa Calm     82% 0 mm
04:19 9.4 °C 6.5 °C 1016.1 hPa Calm   2.6 km/h 82% 0 mm
04:20 9.4 °C 6.5 °C 1016.1 hPa ESE 1.1 km/h 2.6 km/h 82% 0 mm
04:22 9.4 °C 6.5 °C 1016.1 hPa Calm   2.6 km/h 82% 0 mm
04:23 9.4 °C 6.5 °C 1016.1 hPa ESE 1.1 km/h 2.6 km/h 82% 0 mm
04:24 9.4 °C 6.5 °C 1016.1 hPa ESE 1.1 km/h 3.5 km/h 82% 0 mm
04:25 9.4 °C 6.5 °C 1016.1 hPa ESE 1.1 km/h 3.5 km/h 82% 0 mm
04:26 9.4 °C 6.5 °C 1016.1 hPa ESE 1.1 km/h 5 km/h 82% 0 mm
04:27 9.4 °C 6.7 °C 1016.1 hPa East 2.6 km/h 5 km/h 83% 0 mm
04:28 9.4 °C 6.7 °C 1015.8 hPa East 1.1 km/h 5 km/h 83% 0 mm
04:29 9.4 °C 6.7 °C 1015.8 hPa East 1.1 km/h 5 km/h 83% 0 mm
04:30 9.5 °C 6.8 °C 1016.1 hPa Calm   5 km/h 83% 0 mm
04:31 9.4 °C 6.7 °C 1016.1 hPa Calm   5 km/h 83% 0 mm
04:33 9.5 °C 6.8 °C 1016.1 hPa Calm   5 km/h 83% 0 mm
04:35 9.5 °C 6.8 °C 1016.1 hPa ENE 1.1 km/h 3.5 km/h 83% 0 mm
04:36 9.5 °C 6.8 °C 1016.1 hPa NE 1.1 km/h 3.5 km/h 83% 0 mm
04:38 9.5 °C 6.8 °C 1016.1 hPa Calm   3.5 km/h 83% 0 mm
04:40 9.5 °C 6.8 °C 1016.1 hPa NNE 1.1 km/h 3.5 km/h 83% 0 mm
04:42 9.5 °C 6.8 °C 1016.1 hPa North 2.6 km/h 7.2 km/h 83% 0 mm
04:43 9.6 °C 6.8 °C 1016.1 hPa NNE 1.1 km/h 7.2 km/h 83% 0 mm
04:44 9.6 °C 6.8 °C 1016.1 hPa NNE 1.1 km/h 7.2 km/h 83% 0 mm
04:45 9.6 °C 7.1 °C 1016.1 hPa NNE 1.1 km/h 7.2 km/h 84% 0 mm
04:46 9.6 °C 7.1 °C 1016.1 hPa NNE 1.1 km/h 7.2 km/h 84% 0 mm
04:47 9.6 °C 7.1 °C 1016.1 hPa NNE 1.1 km/h 7.2 km/h 84% 0 mm
04:49 9.7 °C 7.1 °C 1016.1 hPa NNE 1.1 km/h 7.2 km/h 84% 0 mm
04:50 9.7 °C 7.1 °C 1016.1 hPa NNE 2.6 km/h 7.2 km/h 84% 0 mm
04:51 9.7 °C 7.1 °C 1016.1 hPa NNE 3.5 km/h 8.7 km/h 84% 0 mm
04:52 9.8 °C 7.2 °C 1016.1 hPa NNE 2.6 km/h 8.7 km/h 84% 0 mm
04:55 9.9 °C 7.3 °C 1016.1 hPa North 3.5 km/h 8.7 km/h 84% 0 mm
04:56 9.9 °C 7.5 °C 1016.1 hPa North 5 km/h 8.7 km/h 85% 0 mm
04:59 10 °C 7.6 °C 1016.1 hPa North 3.5 km/h 8.7 km/h 85% 0 mm
05:00 10 °C 7.6 °C 1016.1 hPa North 5 km/h 8.7 km/h 85% 0 mm
05:01 10 °C 7.6 °C 1016.5 hPa North 3.5 km/h 8.7 km/h 85% 0 mm
05:02 10.1 °C 7.7 °C 1016.1 hPa North 3.5 km/h 8.7 km/h 85% 0 mm
05:05 10.1 °C 7.7 °C 1016.5 hPa North 2.6 km/h 8.7 km/h 85% 0 mm
05:06 10.1 °C 7.7 °C 1016.1 hPa North 2.6 km/h 8.7 km/h 85% 0 mm
05:07 10.2 °C 7.8 °C 1016.1 hPa North 2.6 km/h 8.7 km/h 85% 0 mm
05:11 10.2 °C 7.8 °C 1016.5 hPa North 1.1 km/h 8.7 km/h 85% 0 mm
05:12 10.2 °C 7.8 °C 1016.1 hPa North 3.5 km/h 8.7 km/h 85% 0 mm
05:13 10.2 °C 7.8 °C 1016.1 hPa North 2.6 km/h 8.7 km/h 85% 0 mm
05:16 10.3 °C 7.9 °C 1016.1 hPa NNE 1.1 km/h 8.7 km/h 85% 0 mm
05:17 10.3 °C 7.9 °C 1016.5 hPa North 1.1 km/h 8.7 km/h 85% 0 mm
05:18 10.3 °C 7.9 °C 1016.5 hPa North 3.5 km/h 8.7 km/h 85% 0 mm
05:19 10.3 °C 7.9 °C 1016.1 hPa North 2.6 km/h 8.7 km/h 85% 0 mm
05:22 10.3 °C 7.9 °C 1016.1 hPa North 2.6 km/h 8.7 km/h 85% 0 mm
05:23 10.3 °C 7.7 °C 1016.1 hPa North 1.1 km/h 7.2 km/h 84% 0 mm
05:24 10.4 °C 7.8 °C 1016.1 hPa North 2.6 km/h 7.2 km/h 84% 0 mm
05:27 10.4 °C 7.8 °C 1016.1 hPa North 2.6 km/h 8.7 km/h 84% 0 mm
05:28 10.4 °C 7.8 °C 1016.1 hPa North 2.6 km/h 8.7 km/h 84% 0 mm
05:30 10.4 °C 7.8 °C 1016.5 hPa North 6.1 km/h 12.2 km/h 84% 0 mm
05:33 10.5 °C 7.7 °C 1016.5 hPa NNW 3.5 km/h 12.2 km/h 83% 0 mm
05:34 10.5 °C 7.7 °C 1016.5 hPa NNW 3.5 km/h 12.2 km/h 83% 0 mm
05:35 10.5 °C 7.7 °C 1016.5 hPa NNW 5 km/h 12.2 km/h 83% 0 mm
05:38 10.6 °C 7.7 °C 1016.5 hPa NNW 5 km/h 15.8 km/h 82% 0 mm
05:39 10.6 °C 7.7 °C 1016.5 hPa NNW 3.5 km/h 15.8 km/h 82% 0 mm
05:40 10.6 °C 7.7 °C 1016.5 hPa NNW 5 km/h 15.8 km/h 82% 0 mm
05:41 10.7 °C 7.7 °C 1016.5 hPa NNW 6.1 km/h 15.8 km/h 82% 0 mm
05:44 10.7 °C 7.7 °C 1016.5 hPa NNW 3.5 km/h 15.8 km/h 82% 0 mm
05:46 10.7 °C 7.7 °C 1016.5 hPa NNW 5 km/h 15.8 km/h 82% 0 mm
05:49 10.8 °C 7.7 °C 1016.8 hPa NNW 2.6 km/h 9.7 km/h 81% 0 mm
05:50 10.8 °C 7.7 °C 1016.8 hPa North 5 km/h 9.7 km/h 81% 0 mm
05:51 10.8 °C 7.7 °C 1016.5 hPa North 1.1 km/h 8.7 km/h 81% 0 mm
05:52 10.8 °C 7.7 °C 1016.8 hPa North 2.6 km/h 8.7 km/h 81% 0 mm
05:54 10.8 °C 7.7 °C 1016.8 hPa North 5 km/h 11.1 km/h 81% 0 mm
05:55 10.8 °C 7.7 °C 1016.8 hPa North 1.1 km/h 11.1 km/h 81% 0 mm
05:56 10.8 °C 7.7 °C 1016.8 hPa North 3.5 km/h 11.1 km/h 81% 0 mm
05:57 10.8 °C 7.7 °C 1016.8 hPa North 1.1 km/h 11.1 km/h 81% 0 mm
06:00 10.8 °C 7.7 °C 1016.8 hPa NNE 7.2 km/h 13.4 km/h 81% 0 mm
06:01 10.9 °C 7.7 °C 1016.8 hPa NE 5 km/h 13.4 km/h 81% 0 mm
06:03 10.8 °C 7.7 °C 1016.5 hPa NNE 8.7 km/h 13.4 km/h 81% 0 mm
06:04 10.8 °C 7.7 °C 1016.5 hPa NNE 8.7 km/h 13.4 km/h 81% 0 mm
06:05 10.9 °C 7.6 °C 1016.5 hPa NNE 9.7 km/h 18.3 km/h 80% 0 mm
06:07 10.9 °C 7.6 °C 1016.5 hPa NNE 8.7 km/h 18.3 km/h 80% 0 mm
06:08 10.9 °C 7.6 °C 1016.5 hPa NNE 9.7 km/h 18.3 km/h 80% 0 mm
06:09 10.9 °C 7.6 °C 1016.5 hPa NNE 9.7 km/h 18.3 km/h 80% 0 mm
06:10 10.9 °C 7.4 °C 1016.5 hPa NNE 7.2 km/h 18.3 km/h 79% 0 mm
06:11 10.9 °C 7.4 °C 1016.5 hPa NNE 7.2 km/h 18.3 km/h 79% 0 mm
06:12 10.9 °C 7.4 °C 1016.5 hPa North 7.2 km/h 18.3 km/h 79% 0 mm
06:14 10.9 °C 7.2 °C 1016.5 hPa NNE 11.1 km/h 18.3 km/h 78% 0 mm
06:15 10.9 °C 7.2 °C 1016.5 hPa NNE 7.2 km/h 18.3 km/h 78% 0 mm
06:16 10.9 °C 7.2 °C 1016.5 hPa North 8.7 km/h 18.3 km/h 78% 0 mm
06:17 10.9 °C 7.2 °C 1016.5 hPa North 8.7 km/h 18.3 km/h 78% 0 mm
06:18 10.9 °C 7.2 °C 1016.5 hPa North 7.2 km/h 18.3 km/h 78% 0 mm
06:20 10.9 °C 7.2 °C 1016.5 hPa North 2.6 km/h 20.9 km/h 78% 0 mm
06:21 10.9 °C 7.2 °C 1016.5 hPa North 2.6 km/h 20.9 km/h 78% 0 mm
06:22 10.9 °C 7 °C 1016.5 hPa North 3.5 km/h 20.9 km/h 77% 0 mm
06:23 11 °C 7.1 °C 1016.1 hPa North 6.1 km/h 20.9 km/h 77% 0 mm
06:24 10.9 °C 7 °C 1016.5 hPa North 11.1 km/h 21.9 km/h 77% 0 mm
06:26 10.9 °C 7 °C 1016.5 hPa North 5 km/h 21.9 km/h 77% 0 mm
06:28 10.9 °C 7 °C 1016.5 hPa North 7.2 km/h 21.9 km/h 77% 0 mm
06:29 10.9 °C 7 °C 1016.5 hPa North 8.7 km/h 21.9 km/h 77% 0 mm
06:31 10.9 °C 7 °C 1016.5 hPa North 11.1 km/h 21.9 km/h 77% 0 mm
06:32 10.9 °C 7 °C 1016.1 hPa North 7.2 km/h 21.9 km/h 77% 0 mm
06:33 10.9 °C 7 °C 1016.1 hPa North 9.7 km/h 21.9 km/h 77% 0 mm
06:34 10.9 °C 7 °C 1016.5 hPa North 7.2 km/h 17.2 km/h 77% 0 mm
06:35 10.9 °C 7 °C 1016.5 hPa North 9.7 km/h 17.2 km/h 77% 0 mm
06:37 10.9 °C 6.8 °C 1016.1 hPa North 11.1 km/h 17.2 km/h 76% 0 mm
06:38 10.8 °C 6.7 °C 1016.1 hPa North 8.7 km/h 17.2 km/h 76% 0 mm
06:39 10.8 °C 6.7 °C 1016.1 hPa North 8.7 km/h 17.2 km/h 76% 0 mm
06:40 10.8 °C 6.7 °C 1016.1 hPa North 7.2 km/h 17.2 km/h 76% 0 mm
06:42 10.8 °C 6.7 °C 1016.1 hPa NNW 3.5 km/h 17.2 km/h 76% 0 mm
06:43 10.8 °C 6.7 °C 1016.1 hPa North 8.7 km/h 17.2 km/h 76% 0 mm
06:44 10.8 °C 6.7 °C 1016.1 hPa North 8.7 km/h 17.2 km/h 76% 0 mm
06:45 10.8 °C 6.7 °C 1016.1 hPa NNW 7.2 km/h 19.5 km/h 76% 0 mm
06:46 10.8 °C 6.7 °C 1016.1 hPa NNW 6.1 km/h 19.5 km/h 76% 0 mm
06:47 10.8 °C 6.7 °C 1016.1 hPa NNW 3.5 km/h 19.5 km/h 76% 0 mm
06:48 10.8 °C 6.7 °C 1016.1 hPa NNW 5 km/h 19.5 km/h 76% 0 mm
06:49 10.8 °C 6.7 °C 1016.1 hPa NNW 3.5 km/h 19.5 km/h 76% 0 mm
06:50 10.8 °C 6.7 °C 1016.5 hPa North 7.2 km/h 19.5 km/h 76% 0 mm
06:51 10.8 °C 6.7 °C 1016.5 hPa North 7.2 km/h 19.5 km/h 76% 0 mm
06:52 10.8 °C 6.7 °C 1016.5 hPa North 5 km/h 19.5 km/h 76% 0 mm
06:53 10.8 °C 6.7 °C 1016.5 hPa North 3.5 km/h 19.5 km/h 76% 0 mm
06:54 10.8 °C 6.7 °C 1016.5 hPa North 7.2 km/h 19.5 km/h 76% 0 mm
06:55 10.8 °C 6.6 °C 1016.5 hPa NNE 8.7 km/h 15.8 km/h 75% 0 mm
06:56 10.8 °C 6.7 °C 1016.1 hPa NNE 6.1 km/h 15.8 km/h 76% 0 mm
06:58 10.8 °C 6.6 °C 1016.5 hPa North 6.1 km/h 20.9 km/h 75% 0 mm
06:59 10.7 °C 6.4 °C 1016.5 hPa North 6.1 km/h 20.9 km/h 75% 0 mm
07:00 10.8 °C 6.6 °C 1016.5 hPa North 7.2 km/h 20.9 km/h 75% 0 mm
07:01 10.8 °C 6.6 °C 1016.5 hPa North 8.7 km/h 20.9 km/h 75% 0 mm
07:03 10.7 °C 6.4 °C 1016.8 hPa NNW 1.1 km/h 20.9 km/h 75% 0 mm
07:04 10.7 °C 6.4 °C 1016.5 hPa NNW 2.6 km/h 20.9 km/h 75% 0 mm
07:05 10.7 °C 6.4 °C 1016.5 hPa NNW 6.1 km/h 20.9 km/h 75% 0 mm
07:06 10.7 °C 6.4 °C 1016.8 hPa NNW 5 km/h 20.9 km/h 75% 0 mm
07:08 10.7 °C 6.4 °C 1016.8 hPa North 8.7 km/h 18.3 km/h 75% 0 mm
07:09 10.7 °C 6.4 °C 1016.5 hPa North 3.5 km/h 18.3 km/h 75% 0 mm
07:10 10.7 °C 6.4 °C 1016.8 hPa North 7.2 km/h 18.3 km/h 75% 0 mm
07:11 10.7 °C 6.4 °C 1016.8 hPa North 7.2 km/h 18.3 km/h 75% 0 mm
07:12 10.7 °C 6.4 °C 1016.5 hPa North 8.7 km/h 18.3 km/h 75% 0 mm
07:14 10.7 °C 6.4 °C 1016.8 hPa North 8.7 km/h 18.3 km/h 75% 0 mm
07:15 10.7 °C 6.4 °C 1016.8 hPa North 7.2 km/h 18.3 km/h 75% 0 mm
07:16 10.7 °C 6.4 °C 1016.8 hPa North 5 km/h 18.3 km/h 75% 0 mm
07:17 10.7 °C 6.4 °C 1016.8 hPa North 5 km/h 18.3 km/h 75% 0 mm
07:19 10.7 °C 6.4 °C 1016.8 hPa NNW 6.1 km/h 17.2 km/h 75% 0 mm
07:20 10.7 °C 6.4 °C 1016.8 hPa North 6.1 km/h 17.2 km/h 75% 0 mm
07:22 10.7 °C 6.4 °C 1016.8 hPa North 8.7 km/h 15.8 km/h 75% 0 mm
07:23 10.7 °C 6.4 °C 1016.8 hPa NNW 9.7 km/h 15.8 km/h 75% 0 mm
07:24 10.7 °C 6.4 °C 1016.8 hPa NNW 8.7 km/h 15.8 km/h 75% 0 mm
07:25 10.7 °C 6.4 °C 1016.8 hPa North 6.1 km/h 15.8 km/h 75% 0 mm
07:26 10.7 °C 6.4 °C 1016.8 hPa North 7.2 km/h 15.8 km/h 75% 0 mm
07:27 10.7 °C 6.4 °C 1016.5 hPa North 8.7 km/h 15.8 km/h 75% 0 mm
07:28 10.7 °C 6.4 °C 1016.8 hPa NNW 6.1 km/h 15.8 km/h 75% 0 mm
07:29 10.8 °C 6.6 °C 1016.8 hPa NNW 6.1 km/h 15.8 km/h 75% 0 mm
07:30 10.7 °C 6.4 °C 1016.8 hPa North 6.1 km/h 15.8 km/h 75% 0 mm
07:32 10.8 °C 6.6 °C 1016.8 hPa North 3.5 km/h 15.8 km/h 75% 0 mm
07:33 10.8 °C 6.6 °C 1016.8 hPa North 7.2 km/h 15.8 km/h 75% 0 mm
07:35 10.8 °C 6.6 °C 1016.8 hPa North 9.7 km/h 17.2 km/h 75% 0 mm
07:36 10.8 °C 6.6 °C 1016.8 hPa North 8.7 km/h 17.2 km/h 75% 0 mm
07:37 10.8 °C 6.6 °C 1016.8 hPa North 5 km/h 17.2 km/h 75% 0 mm
07:38 10.8 °C 6.6 °C 1016.8 hPa North 5 km/h 17.2 km/h 75% 0 mm
07:39 10.8 °C 6.6 °C 1016.8 hPa North 5 km/h 17.2 km/h 75% 0 mm
07:40 10.8 °C 6.6 °C 1016.8 hPa NNW 6.1 km/h 17.2 km/h 75% 0 mm
07:42 10.9 °C 6.6 °C 1016.8 hPa NNW 6.1 km/h 17.2 km/h 75% 0 mm
07:43 10.9 °C 6.6 °C 1016.8 hPa North 2.6 km/h 17.2 km/h 75% 0 mm
07:44 10.9 °C 6.6 °C 1016.8 hPa North 2.6 km/h 17.2 km/h 75% 0 mm
07:45 10.9 °C 6.6 °C 1017.2 hPa North 7.2 km/h 17.2 km/h 75% 0 mm
07:46 10.9 °C 6.6 °C 1017.2 hPa NNW 8.7 km/h 14.8 km/h 75% 0 mm
07:48 11 °C 6.7 °C 1017.2 hPa North 2.6 km/h 14.8 km/h 75% 0 mm
07:49 11 °C 6.7 °C 1016.8 hPa North 5 km/h 14.8 km/h 75% 0 mm
07:50 11 °C 6.7 °C 1016.8 hPa North 5 km/h 14.8 km/h 75% 0 mm
07:52 11.1 °C 6.6 °C 1017.2 hPa NNE 7.2 km/h 14.8 km/h 74% 0 mm
07:54 11.1 °C 6.6 °C 1017.2 hPa NNE 2.6 km/h 13.4 km/h 74% 0 mm
07:55 11.1 °C 6.6 °C 1017.2 hPa NNE 5 km/h 13.4 km/h 74% 0 mm
07:56 11.1 °C 6.6 °C 1017.2 hPa NNE 5 km/h 13.4 km/h 74% 0 mm
07:57 11.2 °C 6.7 °C 1017.2 hPa North 11.1 km/h 19.5 km/h 74% 0 mm
07:59 11.2 °C 6.7 °C 1017.2 hPa North 5 km/h 19.5 km/h 74% 0 mm
08:00 11.2 °C 6.7 °C 1017.2 hPa North 6.1 km/h 19.5 km/h 74% 0 mm
08:01 11.3 °C 6.8 °C 1017.2 hPa North 5 km/h 19.5 km/h 74% 0 mm
08:02 11.3 °C 6.8 °C 1017.2 hPa North 5 km/h 19.5 km/h 74% 0 mm
08:04 11.4 °C 6.9 °C 1016.8 hPa NNW 6.1 km/h 19.5 km/h 74% 0 mm
08:05 11.4 °C 6.8 °C 1017.2 hPa NNW 6.1 km/h 19.5 km/h 73% 0 mm
08:06 11.4 °C 6.8 °C 1017.2 hPa NNW 6.1 km/h 19.5 km/h 73% 0 mm
08:07 11.6 °C 6.9 °C 1017.2 hPa NNW 8.7 km/h 13.4 km/h 73% 0 mm
08:09 11.7 °C 7 °C 1017.2 hPa NNW 7.2 km/h 17.2 km/h 73% 0 mm
08:11 11.8 °C 6.9 °C 1017.2 hPa North 9.7 km/h 17.2 km/h 72% 0 mm
08:12 11.8 °C 6.9 °C 1017.2 hPa North 7.2 km/h 18.3 km/h 72% 0 mm
08:13 11.8 °C 6.9 °C 1017.2 hPa North 7.2 km/h 18.3 km/h 72% 0 mm
08:15 11.8 °C 6.8 °C 1017.2 hPa North 6.1 km/h 18.3 km/h 71% 0 mm
08:16 11.8 °C 6.8 °C 1017.2 hPa North 5 km/h 18.3 km/h 71% 0 mm
08:17 11.8 °C 6.8 °C 1017.2 hPa North 5 km/h 18.3 km/h 71% 0 mm
08:18 11.9 °C 6.9 °C 1017.5 hPa North 6.1 km/h 18.3 km/h 71% 0 mm
08:20 12.1 °C 6.9 °C 1017.2 hPa North 9.7 km/h 18.3 km/h 71% 0 mm
08:21 12.2 °C 7.1 °C 1017.2 hPa North 8.7 km/h 18.3 km/h 71% 0 mm
08:22 12.2 °C 7.1 °C 1017.2 hPa North 5 km/h 17.2 km/h 71% 0 mm
08:23 12.2 °C 7.2 °C 1017.2 hPa North 7.2 km/h 17.2 km/h 71% 0 mm
08:26 12.4 °C 7.1 °C 1017.2 hPa NNE 9.7 km/h 17.2 km/h 70% 0 mm
08:27 12.6 °C 7.2 °C 1017.2 hPa NNE 2.6 km/h 17.2 km/h 70% 0 mm
08:28 12.6 °C 7.2 °C 1017.5 hPa NNE 6.1 km/h 17.2 km/h 70% 0 mm
08:29 12.7 °C 7.3 °C 1017.2 hPa NNE 7.2 km/h 17.2 km/h 70% 0 mm
08:31 12.7 °C 7.1 °C 1017.2 hPa NNE 6.1 km/h 17.2 km/h 69% 0 mm
08:32 12.7 °C 7.1 °C 1017.2 hPa NNE 7.2 km/h 17.2 km/h 69% 0 mm
08:33 12.7 °C 7.1 °C 1017.2 hPa NNE 5 km/h 17.2 km/h 69% 0 mm
08:34 12.7 °C 7.2 °C 1017.2 hPa North 7.2 km/h 17.2 km/h 69% 0 mm
08:36 12.7 °C 7 °C 1017.5 hPa North 8.7 km/h 17.2 km/h 68% 0 mm
08:38 12.8 °C 7.1 °C 1017.2 hPa North 5 km/h 17.2 km/h 68% 0 mm
08:39 12.8 °C 7.3 °C 1017.2 hPa NNW 6.1 km/h 17.2 km/h 69% 0 mm
08:40 12.9 °C 7.4 °C 1017.2 hPa North 7.2 km/h 17.2 km/h 69% 0 mm
08:41 12.9 °C 7.2 °C 1017.2 hPa North 7.2 km/h 17.2 km/h 68% 0 mm
08:43 13.1 °C 7.3 °C 1017.2 hPa North 6.1 km/h 20.9 km/h 68% 0 mm
08:45 13.1 °C 7.3 °C 1017.2 hPa North 11.1 km/h 20.9 km/h 68% 0 mm
08:46 13.1 °C 7.4 °C 1017.2 hPa North 7.2 km/h 20.9 km/h 68% 0 mm
08:49 13.2 °C 7.4 °C 1017.2 hPa North 3.5 km/h 20.9 km/h 68% 0 mm
08:50 13.2 °C 7.4 °C 1017.2 hPa North 3.5 km/h 20.9 km/h 68% 0 mm
08:51 13.3 °C 7.6 °C 1017.2 hPa NNE 12.2 km/h 20.9 km/h 68% 0 mm
08:52 13.3 °C 7.6 °C 1017.2 hPa NNE 12.2 km/h 20.9 km/h 68% 0 mm
08:54 13.5 °C 7.5 °C 1017.2 hPa North 11.1 km/h 24.5 km/h 67% 0 mm
08:55 13.5 °C 7.5 °C 1017.2 hPa North 11.1 km/h 24.5 km/h 67% 0 mm
08:56 13.6 °C 7.6 °C 1016.8 hPa North 9.7 km/h 24.5 km/h 67% 0 mm
08:57 13.7 °C 7.7 °C 1016.8 hPa North 13.4 km/h 24.5 km/h 67% 0 mm
08:58 13.7 °C 7.5 °C 1017.2 hPa North 12.2 km/h 31.7 km/h 66% 0 mm
09:00 13.8 °C 7.6 °C 1017.2 hPa NNE 8.7 km/h 31.7 km/h 66% 0 mm
09:02 13.9 °C 7.4 °C 1016.8 hPa NNE 14.8 km/h 31.7 km/h 65% 0 mm
09:03 13.9 °C 7.4 °C 1017.2 hPa NNE 7.2 km/h 31.7 km/h 65% 0 mm
09:05 14 °C 7.6 °C 1016.8 hPa North 12.2 km/h 31.7 km/h 65% 0 mm
09:06 14 °C 7.6 °C 1016.8 hPa North 6.1 km/h 31.7 km/h 65% 0 mm
09:07 14 °C 7.6 °C 1016.8 hPa NNE 11.1 km/h 31.7 km/h 65% 0 mm
09:08 14.1 °C 7.6 °C 1017.2 hPa NNE 9.7 km/h 31.7 km/h 65% 0 mm
09:10 14.1 °C 7.6 °C 1016.8 hPa North 11.1 km/h 29.5 km/h 65% 0 mm
09:12 14.2 °C 7.5 °C 1016.8 hPa North 11.1 km/h 30.6 km/h 64% 0 mm
09:13 14.2 °C 7.5 °C 1016.8 hPa North 13.4 km/h 30.6 km/h 64% 0 mm
09:14 14.2 °C 7.5 °C 1016.8 hPa North 13.4 km/h 30.6 km/h 64% 0 mm
09:15 14.3 °C 7.6 °C 1016.8 hPa North 12.2 km/h 30.6 km/h 64% 0 mm
09:17 14.4 °C 7.7 °C 1016.8 hPa North 9.7 km/h 30.6 km/h 64% 0 mm
09:19 14.4 °C 7.7 °C 1016.8 hPa North 9.7 km/h 30.6 km/h 64% 0 mm
09:20 14.6 °C 7.9 °C 1016.8 hPa NNE 9.7 km/h 30.6 km/h 64% 0 mm
09:23 14.8 °C 7.8 °C 1016.8 hPa North 12.2 km/h 25.6 km/h 63% 0 mm
09:24 14.8 °C 7.8 °C 1016.5 hPa NNE 12.2 km/h 25.6 km/h 63% 0 mm
09:25 14.9 °C 7.9 °C 1016.8 hPa NNE 9.7 km/h 25.6 km/h 63% 0 mm
09:26 15 °C 8 °C 1016.5 hPa NNE 8.7 km/h 25.6 km/h 63% 0 mm
www.araratweather.com - Email: contact at araratweather.com
Data created with Cumulus & bmak
Click here to send mail.


ABOUT

Live weather data from Ararat, Victoria, Australia, 3377
Data uploaded from Cumulus every 5 minutes to Weather Underground.
This site then downloads the raw data for formatting and display.
Metric and imperial data can be displayed. Graphs and historical data available.
Includes Sun and Moon times and rain image live from BOM.

Check out Ararat Weather on Facebook, Twitter and Google +

Help support ongoing costs by checking out the ads





Follow @AraratWeather